GW3497 Weather Reports


time (UTC)temp
C
wind
direction
speed
KPH
gust
KPH
rain 1hr
cm
rain 24hr
cm
rain mn
cm
humidity
%
barometer
mb
20260507090225 10 113 1.6 3.2 0.00 0.00 0.00 79 1016.3
20260507085723 10 113 0.0 1.6 0.00 0.00 0.00 81 1016.3
20260507085221 10 113 0.0 3.2 0.00 0.00 0.00 81 1016.4
20260507084720 10 113 0.0 4.8 0.00 0.00 0.00 81 1016.4
20260507084221 10 113 1.6 9.7 0.00 0.00 0.00 81 1016.3
20260507084037 10 111 3.2 9.7 0.00 0.00 0.00 82 1016.3
20260507083211 10 111 4.8 8.0 0.00 0.00 0.00 84 1016.4
20260507082710 10 111 3.2 8.0 0.00 0.00 0.00 84 1016.3
20260507082204 10 111 0.0 6.4 0.00 0.00 0.00 84 1016.3
20260507081704 10 111 3.2 8.0 0.00 0.00 0.00 84 1016.4
20260507081204 10 110 6.4 8.0 0.00 0.00 0.00 85 1016.4
20260507080948 9 113 3.2 6.4 0.00 0.00 0.00 88 1016.3
20260507080206 9 158 6.4 6.4 0.00 0.00 0.00 88 1016.3
20260507075705 9 93 3.2 6.4 0.00 0.00 0.00 89 1016.3
20260507075204 9 66 6.4 6.4 0.00 0.00 0.00 89 1016.3
20260507074704 8 104 3.2 6.4 0.00 0.00 0.00 89 1016.2
20260507074206 8 104 1.6 6.4 0.00 0.00 0.00 89 1016.3
20260507073702 8 114 0.0 4.8 0.00 0.00 0.00 88 1016.2
20260507073201 8 158 1.6 4.8 0.00 0.00 0.00 88 1016.3
20260507072702 8 159 1.6 4.8 0.00 0.00 0.00 89 1016.3
20260507072200 8 152 1.6 3.2 0.00 0.00 0.00 89 1016.3
20260507071946 8 152 0.0 4.8 0.00 0.00 0.00 89 1016.3
20260507071325 8 110 1.6 4.8 0.00 0.00 0.00 90 1016.2
20260507071259 8 151 1.6 4.8 0.00 0.00 0.00 89 1016.2
20260507070200 8 110 0.0 4.8 0.00 0.00 0.00 90 1016.2
20260507065655 8 110 3.2 6.4 0.00 0.00 0.00 90 1016.1
20260507065443 8 110 1.6 6.4 0.00 0.00 0.00 90 1016.1
20260507064658 7 110 1.6 6.4 0.00 0.00 0.00 90 1016.1
20260507064155 7 75 3.2 6.4 0.00 0.00 0.00 90 1016.1
20260507063652 7 68 1.6 4.8 0.00 0.00 0.00 90 1016.1
20260507063151 7 68 0.0 6.4 0.00 0.00 0.00 90 1016.0
20260507062650 7 68 3.2 6.4 0.00 0.00 0.00 91 1016.0
20260507062151 7 66 0.0 3.2 0.00 0.00 0.00 91 1016.0
20260507061651 7 66 0.0 0.0 0.00 0.00 0.00 91 1016.0
20260507061437 7 66 0.0 0.0 0.00 0.00 0.00 91 1016.0
20260507060654 7 66 0.0 3.2 0.00 0.00 0.00 91 1015.9
20260507060434 7 42 0.0 3.2 0.00 0.00 0.00 91 1015.9
20260507055652 7 42 0.0 3.2 0.00 0.00 0.00 90 1015.9
20260507055156 7 42 0.0 3.2 0.00 0.00 0.00 91 1015.8
20260507054652 7 42 0.0 0.0 0.00 0.00 0.00 90 1015.9
20260507054154 7 42 0.0 0.0 0.00 0.00 0.00 90 1015.8
20260507053651 7 42 0.0 0.0 0.00 0.00 0.00 90 1015.8
20260507053148 7 42 0.0 0.0 0.00 0.00 0.00 90 1015.7
20260507052646 6 42 0.0 0.0 0.00 0.00 0.00 89 1015.8
20260507052146 6 42 0.0 0.0 0.00 0.00 0.00 89 1015.7
20260507051646 6 42 0.0 0.0 0.00 0.00 0.00 89 1015.7
20260507051146 6 42 0.0 0.0 0.00 0.00 0.00 89 1015.6
20260507050651 6 42 0.0 0.0 0.00 0.00 0.00 89 1015.6
20260507050148 6 42 0.0 0.0 0.00 0.00 0.00 89 1015.6
20260507045647 6 42 0.0 0.0 0.00 0.00 0.00 89 1015.5
20260507045436 6 42 0.0 0.0 0.00 0.00 0.00 89 1015.5
20260507044646 6 42 0.0 0.0 0.00 0.00 0.00 89 1015.5
20260507044144 6 42 0.0 0.0 0.00 0.00 0.00 89 1015.5
20260507043645 6 42 0.0 0.0 0.00 0.00 0.00 89 1015.5
20260507043147 6 42 0.0 0.0 0.00 0.00 0.00 89 1015.4
20260507042643 6 42 0.0 0.0 0.00 0.00 0.00 89 1015.4
20260507042146 6 42 0.0 0.0 0.00 0.00 0.00 89 1015.4
20260507041648 6 42 0.0 0.0 0.00 0.00 0.00 89 1015.5
20260507041147 6 42 0.0 0.0 0.00 0.00 0.00 89 1015.4
20260507040645 6 42 0.0 0.0 0.00 0.00 0.00 89 1015.4
20260507040143 6 42 0.0 0.0 0.00 0.00 0.00 89 1015.5
20260507035644 6 42 0.0 0.0 0.00 0.00 0.00 89 1015.5
20260507035143 6 42 0.0 0.0 0.00 0.00 0.00 89 1015.4
20260507034646 6 42 0.0 0.0 0.00 0.00 0.00 89 1015.4
20260507034143 6 42 0.0 0.0 0.00 0.00 0.00 89 1015.5
20260507033940 6 42 0.0 0.0 0.00 0.00 0.00 89 1015.4
20260507033144 6 42 0.0 0.0 0.00 0.00 0.00 89 1015.3
20260507032643 7 42 0.0 0.0 0.00 0.00 0.00 89 1015.3
20260507032436 7 42 0.0 0.0 0.00 0.00 0.00 89 1015.3
20260507031929 7 42 0.0 0.0 0.00 0.00 0.00 89 1015.4
20260507031144 7 42 0.0 0.0 0.00 0.00 0.00 89 1015.4
20260507030642 7 42 0.0 0.0 0.00 0.00 0.00 90 1015.4
20260507030141 7 42 0.0 0.0 0.00 0.00 0.00 89 1015.4
20260507025937 7 42 0.0 0.0 0.00 0.00 0.00 89 1015.4
20260507025142 7 42 0.0 0.0 0.00 0.00 0.00 90 1015.2
20260507025115 7 42 0.0 0.0 0.00 0.00 0.00 90 1015.3
20260507025109 7 42 0.0 0.0 0.00 0.00 0.00 90 1015.3
20260507023640 7 42 0.0 0.0 0.00 0.00 0.00 90 1015.3
20260507023141 7 42 0.0 0.0 0.00 0.00 0.00 90 1015.4
20260507022641 7 42 0.0 0.0 0.00 0.00 0.00 90 1015.4
20260507022141 7 42 0.0 0.0 0.00 0.00 0.00 90 1015.4
20260507021643 7 42 0.0 1.6 0.00 0.00 0.00 90 1015.4
20260507021142 7 42 0.0 1.6 0.00 0.00 0.00 89 1015.4
20260507020641 7 42 0.0 0.0 0.00 0.00 0.00 89 1015.3
20260507020140 7 42 0.0 0.0 0.00 0.00 0.00 89 1015.3
20260507015641 7 42 0.0 0.0 0.00 0.00 0.00 89 1015.2
20260507015139 6 42 0.0 3.2 0.00 0.00 0.00 89 1015.3
20260507014930 6 42 0.0 3.2 0.00 0.00 0.00 88 1015.3
20260507014138 6 42 0.0 1.6 0.00 0.00 0.00 88 1015.2
20260507013640 6 42 0.0 0.0 0.00 0.00 0.00 88 1015.2
20260507013141 6 42 0.0 0.0 0.00 0.00 0.00 88 1015.2
20260507012641 6 42 0.0 4.8 0.00 0.00 0.00 88 1015.2
20260507012140 7 42 0.0 4.8 0.00 0.00 0.00 88 1015.2
20260507011638 7 42 1.6 4.8 0.00 0.00 0.00 88 1015.2
20260507011138 7 44 0.0 4.8 0.00 0.00 0.00 88 1015.1
20260507010640 7 44 0.0 4.8 0.00 0.00 0.00 88 1015.2
20260507010139 7 42 1.6 3.2 0.00 0.00 0.00 88 1015.1
20260507005639 7 42 1.6 4.8 0.00 0.00 0.00 88 1015.1
20260507005434 7 42 1.6 6.4 0.00 0.00 0.00 88 1015.2
20260507004637 7 42 3.2 6.4 0.00 0.00 0.00 88 1015.1
20260507004137 7 30 3.2 4.8 0.00 0.00 0.00 87 1015.1
20260507003638 7 28 1.6 4.8 0.00 0.00 0.00 87 1015.2
20260507003138 7 28 0.0 0.0 0.00 0.00 0.00 87 1015.2
20260507002638 7 28 0.0 3.2 0.00 0.00 0.00 87 1015.3
20260507002138 7 28 0.0 3.2 0.00 0.00 0.00 87 1015.3
20260507001943 7 28 0.0 3.2 0.00 0.00 0.00 88 1015.3
20260507001145 7 28 1.6 4.8 0.00 0.00 0.00 88 1015.3
20260507000637 7 30 0.0 4.8 0.00 0.00 0.00 88 1015.3
20260507000136 7 30 1.6 4.8 0.00 0.00 0.00 88 1015.3
20260506235636 7 30 0.0 4.8 0.00 0.00 0.00 88 1015.2
20260506235137 7 30 0.0 4.8 0.00 0.00 0.00 88 1015.3
20260506234930 7 28 1.6 8.0 0.00 0.00 0.00 87 1015.3
20260506234136 7 28 1.6 8.0 0.00 0.00 0.00 87 1015.2
20260506233635 7 37 1.6 8.0 0.00 0.00 0.00 88 1015.3
20260506233136 7 35 1.6 8.0 0.00 0.00 0.00 87 1015.3
20260506232636 7 6 0.0 1.6 0.00 0.00 0.00 87 1015.3
20260506232135 7 6 0.0 3.2 0.00 0.00 0.00 87 1015.2
20260506231722 7 6 1.6 4.8 0.00 0.00 0.00 87 1015.3
20260506230935 7 7 1.6 6.4 0.00 0.00 0.00 87 1015.2
20260506230133 7 38 1.6 4.8 0.00 0.00 0.00 87 1015.1
20260506225631 8 10 1.6 8.0 0.00 0.00 0.00 87 1015.1
20260506225132 8 10 3.2 8.0 0.00 0.00 0.00 86 1015.2
20260506224631 8 0 3.2 8.0 0.00 0.00 0.00 87 1015.1
20260506224131 8 52 1.6 4.8 0.00 0.00 0.00 87 1015.2
20260506223631 8 52 1.6 8.0 0.00 0.00 0.00 87 1015.2
20260506223131 8 55 1.6 8.0 0.00 0.00 0.00 87 1015.1
20260506222631 8 49 3.2 6.4 0.00 0.00 0.00 87 1015.2
20260506222132 8 51 3.2 6.4 0.00 0.00 0.00 87 1015.1
20260506221631 8 49 3.2 8.0 0.00 0.00 0.00 87 1015.2
20260506221131 8 61 1.6 8.0 0.00 0.00 0.00 86 1015.0
20260506220631 8 32 3.2 8.0 0.00 0.00 0.00 86 1015.1
20260506220131 8 27 3.2 8.0 0.00 0.00 0.00 86 1015.1
20260506215633 8 31 0.0 6.4 0.00 0.00 0.00 86 1015.0
20260506215130 8 39 1.6 6.4 0.00 0.00 0.00 86 1015.1
20260506214632 8 34 3.2 8.0 0.00 0.00 0.00 86 1015.0
20260506214134 8 18 3.2 9.7 0.00 0.00 0.00 86 1015.1
20260506213630 8 37 3.2 9.7 0.00 0.00 0.00 86 1015.0
20260506213141 8 38 4.8 8.0 0.00 0.00 0.00 86 1015.0
20260506212630 8 59 1.6 8.0 0.00 0.00 0.00 86 1015.1
20260506212133 8 61 1.6 8.0 0.00 0.00 0.00 86 1015.1
20260506211631 8 0 3.2 6.4 0.00 0.00 0.00 85 1015.1
20260506211131 8 51 1.6 9.7 0.00 0.00 0.00 85 1015.0
20260506210631 8 51 3.2 11.3 0.00 0.00 0.00 85 1015.1
20260506210130 8 51 4.8 16.1 0.00 0.00 0.00 85 1015.0
20260506205926 8 3 3.2 16.1 0.00 0.00 0.00 85 1014.9
20260506205131 8 49 3.2 9.7 0.00 0.00 0.00 85 1014.9
20260506204631 8 54 3.2 9.7 0.00 0.00 0.00 84 1014.9
20260506204427 8 51 4.8 9.7 0.00 0.00 0.00 84 1014.8
20260506203925 8 71 1.6 9.7 0.00 0.00 0.00 84 1014.9
20260506203130 8 0 3.2 11.3 0.00 0.00 0.00 84 1014.8
20260506202630 8 52 3.2 14.5 0.00 0.00 0.00 83 1014.8
20260506202130 8 56 8.0 16.1 0.00 0.00 0.00 83 1014.6
20260506201629 8 38 4.8 16.1 0.00 0.00 0.00 83 1014.6
20260506201428 8 52 4.8 11.3 0.00 0.00 0.00 82 1014.5
20260506200630 8 44 4.8 9.7 0.00 0.00 0.00 82 1014.4
20260506200131 8 48 4.8 14.5 0.00 0.00 0.00 81 1014.5
20260506195631 9 20 3.2 14.5 0.00 0.00 0.00 80 1014.3
20260506195129 9 65 6.4 11.3 0.00 0.00 0.00 80 1014.3
20260506194925 9 25 4.8 11.3 0.00 0.00 0.00 80 1014.3
20260506194128 9 11 3.2 17.7 0.00 0.00 0.00 80 1014.4
20260506193631 9 0 6.4 17.7 0.00 0.00 0.00 80 1014.3
20260506193125 9 54 4.8 16.1 0.00 0.00 0.00 79 1014.3
20260506192627 10 357 4.8 16.1 0.00 0.00 0.00 79 1014.2
20260506192125 10 0 4.8 11.3 0.00 0.00 0.00 79 1014.2
20260506191627 10 11 3.2 11.3 0.00 0.00 0.00 78 1014.1
20260506191126 10 54 4.8 11.3 0.00 0.00 0.00 78 1014.1
20260506190629 10 34 3.2 17.7 0.00 0.00 0.00 78 1014.0
20260506190124 10 21 8.0 17.7 0.00 0.00 0.00 78 1014.0
20260506185621 10 66 8.0 17.7 0.00 0.00 0.00 77 1013.9
20260506185120 10 34 9.7 19.3 0.00 0.00 0.00 77 1013.9
20260506184615 10 47 8.0 19.3 0.00 0.00 0.00 76 1013.9
20260506184116 10 58 6.4 17.7 0.00 0.00 0.00 76 1013.9
20260506183615 10 66 4.8 11.3 0.00 0.00 0.00 75 1013.8
20260506183258 10 97 8.0 16.1 0.00 0.00 0.00 74 1013.7
20260506183223 10 27 6.4 14.5 0.00 0.00 0.00 75 1013.8
20260506182110 10 48 8.0 16.1 0.00 0.00 0.00 73 1013.6
20260506181609 10 58 9.7 17.7 0.00 0.00 0.00 73 1013.5
20260506181108 11 37 9.7 17.7 0.00 0.00 0.00 72 1013.6
20260506180610 11 89 9.7 17.7 0.00 0.00 0.00 72 1013.5
20260506180111 11 66 9.7 17.7 0.00 0.00 0.00 72 1013.5
20260506175605 11 48 4.8 11.3 0.00 0.00 0.00 71 1013.4
20260506175106 11 55 4.8 8.0 0.00 0.00 0.00 70 1013.3
20260506174608 11 32 4.8 6.4 0.00 0.00 0.00 70 1013.3
20260506174113 12 45 6.4 8.0 0.00 0.00 0.00 69 1013.2
20260506173611 12 76 8.0 14.5 0.00 0.00 0.00 64 1013.2
20260506173109 12 47 14.5 14.5 0.00 0.00 0.00 64 1013.1
20260506172611 12 0 8.0 8.0 0.00 0.00 0.00 64 1013.1
20260506172116 -17 0 4.8 8.0 0.00 0.00 0.00 1013.1
20260506171603 -17 20 8.0 8.0 0.00 0.00 0.00 1013.0
20260506171352 12 55 8.0 9.7 0.00 0.00 0.00 64 1013.1
20260506170603 12 55 8.0 9.7 0.00 0.00 0.00 64 1013.1
20260506170346 12 355 3.2 4.8 0.00 0.00 0.00 63 1013.0
20260506165602 -17 355 3.2 14.5 0.00 0.00 0.00 1013.0
20260506165101 13 31 14.5 14.5 0.00 0.00 0.00 64 1013.0
20260506164603 13 341 9.7 14.5 0.00 0.00 0.00 64 1012.9
20260506164101 13 354 1.6 3.2 0.00 0.00 0.00 64 1013.0
20260506163601 12 3 3.2 6.4 0.00 0.00 0.00 65 1013.1
20260506163101 12 34 6.4 11.3 0.00 0.00 0.00 65 1013.1
20260506162603 -17 17 9.7 11.3 0.00 0.00 0.00 1013.1
20260506162354 -17 34 4.8 14.5 0.00 0.00 0.00 1013.1
20260506161601 -17 0 8.0 14.5 0.00 0.00 0.00 1013.1
20260506161101 12 347 0.0 0.0 0.00 0.00 0.00 65 1013.1
20260506160601 12 0 4.8 16.1 0.00 0.00 0.00 65 1013.1
20260506160100 12 0 4.8 16.1 0.00 0.00 0.00 65 1013.1
20260506155601 12 0 9.7 11.3 0.00 0.00 0.00 68 1013.2
20260506155101 12 38 1.6 8.0 0.00 0.00 0.00 66 1013.1
20260506154602 12 0 4.8 8.0 0.00 0.00 0.00 66 1013.3
20260506154101 12 11 6.4 8.0 0.00 0.00 0.00 66 1013.3
20260506153602 12 341 1.6 1.6 0.00 0.00 0.00 64 1013.3
20260506153101 13 10 0.0 6.4 0.00 0.00 0.00 64 1013.2
20260506152602 13 38 6.4 6.4 0.00 0.00 0.00 64 1013.3
20260506152101 13 0 0.0 1.6 0.00 0.00 0.00 65 1013.3
20260506151844 13 0 0.0 3.2 0.00 0.00 0.00 65 1013.3
20260506151059 13 337 3.2 3.2 0.00 0.00 0.00 69 1013.2
20260506150831 13 14 3.2 9.7 0.00 0.00 0.00 69 1013.3
20260506150053 -17 0 9.7 9.7 0.00 0.00 0.00 1013.3
20260506145543 13 314 1.6 9.7 0.00 0.00 0.00 69 1013.2
20260506145043 13 0 8.0 9.7 0.00 0.00 0.00 69 1013.2
20260506144542 13 357 6.4 6.4 0.00 0.00 0.00 69 1013.2
20260506144043 13 357 6.4 6.4 0.00 0.00 0.00 69 1013.2
20260506143824 -17 10 4.8 4.8 0.00 0.00 0.00 1013.2
20260506143054 12 52 6.4 9.7 0.00 0.00 0.00 67 1013.2
20260506142541 12 52 6.4 9.7 0.00 0.00 0.00 67 1013.2
20260506142050 13 21 0.0 9.7 0.00 0.00 0.00 67 1013.2
20260506141541 13 14 4.8 9.7 0.00 0.00 0.00 67 1013.3
20260506141040 -17 39 4.8 4.8 0.00 0.00 0.00 1013.3
20260506140833 13 0 8.0 8.0 0.00 0.00 0.00 69 1013.2
20260506140052 13 0 8.0 9.7 0.00 0.00 0.00 69 1013.2
20260506135536 13 333 1.6 9.7 0.00 0.00 0.00 69 1013.3
20260506135037 13 45 1.6 8.0 0.00 0.00 0.00 69 1013.2
20260506134535 13 0.0 0.0 0.00 0.00 0.00 70 1013.3
20260506134036 13 28 3.2 3.2 0.00 0.00 0.00 70 1013.3
20260506133531 12 28 3.2 3.2 0.00 0.00 0.00 73 1013.4
20260506133042 12 78 9.7 9.7 0.00 0.00 0.00 73 1013.4
20260506132531 12 78 9.7 11.3 0.00 0.00 0.00 73 1013.3
20260506132034 12 334 11.3 11.3 0.00 0.00 0.00 73 1013.3
20260506131530 12 0.0 0.0 0.00 0.00 0.00 73 1013.4
20260506131028 12 0 6.4 9.7 0.00 0.00 0.00 73 1013.4
20260506130518 12 0 6.4 11.3 0.00 0.00 0.00 73 1013.5
20260506130044 12 48 6.4 11.3 0.00 0.00 0.00 79 1013.6
20260506125512 12 62 6.4 14.5 0.00 0.00 0.00 79 1013.5
20260506125005 12 55 9.7 14.5 0.00 0.00 0.00 79 1013.6
20260506124516 -17 56 4.8 4.8 0.00 0.00 0.00 1013.5
20260506124322 -17 32 4.8 4.8 0.00 0.00 0.00 1013.5
20260506123509 -17 17 1.6 3.2 0.00 0.00 0.00 1013.5
20260506123004 -17 348 3.2 6.4 0.00 0.00 0.00 1013.6
20260506122510 11 14 4.8 6.4 0.00 0.00 0.00 78 1013.6
20260506122005 11 21 1.6 8.0 0.00 0.00 0.00 78 1013.6
20260506121456 11 23 3.2 9.7 0.00 0.00 0.00 77 1013.7
20260506121324 11 350 3.2 11.3 0.00 0.00 0.00 77 1013.6
20260506120805 11 0 1.6 11.3 0.00 0.00 0.00 75 1013.6
20260506115955 11 7 6.4 11.3 0.00 0.00 0.00 75 1013.6
20260506115757 11 37 3.2 9.7 0.00 0.00 0.00 77 1013.6
20260506114953 11 338 8.0 8.0 0.00 0.00 0.00 77 1013.6
20260506114450 11 30 3.2 8.0 0.00 0.00 0.00 77 1013.6
20260506113951 11 52 3.2 8.0 0.00 0.00 0.00 77 1013.6
20260506113450 11 18 3.2 8.0 0.00 0.00 0.00 74 1013.7
20260506112948 11 344 8.0 8.0 0.00 0.00 0.00 74 1013.6
20260506112746 11 0 6.4 6.4 0.00 0.00 0.00 74 1013.7
20260506111948 11 66 3.2 11.3 0.00 0.00 0.00 74 1013.7
20260506111448 -17 24 4.8 11.3 0.00 0.00 0.00 1013.6
20260506111106 12 56 8.0 16.1 0.00 0.00 0.00 74 1013.6
20260506111018 12 39 6.4 16.1 0.00 0.00 0.00 74 1013.6
20260506105938 12 42 6.4 19.3 0.00 0.00 0.00 78 1013.6
20260506105440 12 73 14.5 19.3 0.00 0.00 0.00 78 1013.7
20260506104940 11 61 11.3 14.5 0.00 0.00 0.00 81 1013.6
20260506104440 11 340 9.7 9.7 0.00 0.00 0.00 81 1013.6
20260506104306 -17 7 3.2 9.7 0.00 0.00 0.00 1013.7
20260506103441 -17 0 9.7 16.1 0.00 0.00 0.00 1013.7
20260506103317 -17 52 11.3 16.1 0.00 0.00 0.00 1013.7
20260506102440 -17 51 11.3 11.3 0.00 0.00 0.00 1013.6
20260506101941 10 48 4.8 14.5 0.00 0.00 0.00 74 1013.5
20260506101440 10 30 6.4 22.5 0.00 0.00 0.00 74 1013.5
20260506100940 10 17 16.1 22.5 0.00 0.00 0.00 74 1013.6
20260506100440 10 27 16.1 20.9 0.00 0.00 0.00 74 1013.6
20260506095948 10 59 9.7 16.1 0.00 0.00 0.00 73 1013.5
20260506095442 10 51 3.2 16.1 0.00 0.00 0.00 72 1013.5
20260506094938 11 351 6.4 16.1 0.00 0.00 0.00 72 1013.4
20260506094438 11 348 6.4 6.4 0.00 0.00 0.00 72 1013.4
20260506093938 11 66 3.2 14.5 0.00 0.00 0.00 72 1013.5
20260506093439 -17 0 9.7 14.5 0.00 0.00 0.00 1013.5
20260506092939 -17 23 6.4 8.0 0.00 0.00 0.00 1013.4
20260506092438 11 23 6.4 19.3 0.00 0.00 0.00 74 1013.5
20260506091933 11 23 19.3 19.3 0.00 0.00 0.00 74 1013.4
20260506091433 11 55 9.7 19.3 0.00 0.00 0.00 74 1013.4
20260506090926 11 37 12.9 19.3 0.00 0.00 0.00 74 1013.4
20260506090423 11 31 6.4 6.4 0.00 0.00 0.00 73 1013.5